闪电 1-86星 (MOLNIYA 1-86)

导读 | 豆包AI

MOLNIYA 1-86(闪电1-86),是苏联解体后独立国家联合体(CIS)继承苏联航天计划,于1993年5月26日发射的第一代闪电号通信卫星。作为苏联/俄罗斯历史悠久的闪电卫星系列成员,该卫星运行在高椭圆闪电轨道,承担军事与政府通信任务,可支持电视转播、电话电报等通信服务,继承了闪电系列高纬度地区通信优势,是独联体早期航天活动的代表之一。

基本信息
目录编号:
22671
目录名称:
MOLNIYA 1-86
国际标识:
1993-035A
轨道中心:
EARTH
卫星名称:
闪电 1-86星
卫星全名:
闪电 1-86星 (MOLNIYA 1-86)
卫星状态:
在轨 (已飞行11980 天)
发射日期:
1993-05-26 UTC
国别 :
俄罗斯(独联体) (CIS)
星等 :
--
轨道信息
数据来源 国际轨道数据 AOE轨道数据
星历时间 2026-03-13T20:07:33+0800
14小时前
查看轨道信息
2026-03-13T11:00:00+0800
1天前
查看轨道信息
半长轴 13313.831km 13313.845km
偏心率 0.4936848 0.4936811
轨道倾角 62.909° 62.911°
近地点辐角 31.623° 31.614°
升交点赤经 153.742° 153.974°
平近点角 350.396° 296.807°
近地点 362.858km 362.914km
远地点 13508.53km 13508.502km
周期 254.809分钟 254.809分钟
每日圈数 5.651298 5.651289
详细信息
平衡模式:
三轴稳定
覆盖范围:
全球
运营商:
俄罗斯国家航天集团
运营商所在国:
俄罗斯
制造商(研发单位):
普里克拉德诺伊·梅哈尼基设计局
制造商所在国:
俄罗斯联邦
使用方式:
暂无
卫星简介
闪电(Molniya (Satellite))系列卫星是苏联/俄罗斯于1965年至2004年间发射的军事和通信卫星。这些卫星使用高度偏心的椭圆轨道,称为Molniya轨道(即闪电轨道),在高纬度地区具有较长的停留时间。该卫星状态未知。
2D轨道图
3D轨道图
轨道高度分析图
轨道倾角分析图
轨道综合分析图
查看轨道综合分析图